| time (UTC) | temp F | wind direction | speed MPH | gust MPH | rain 1hr in | rain 24hr in | rain mn in | humidity % | barometer mb |
| 20260504044520 | 49 | 174 | 0.0 | 0.0 | 0.00 | 0.00 | 0.00 | 34 | 1014.3 |
| 20260504043027 | 50 | 174 | 0.0 | 0.0 | 0.00 | 0.00 | 0.00 | 30 | 1014.3 |
| 20260504041531 | 50 | 86 | 0.0 | 0.0 | 0.00 | 0.00 | 0.00 | 30 | 1014.4 |
| 20260504040022 | 52 | 86 | 0.0 | 4.0 | 0.00 | 0.00 | 0.00 | 30 | 1014.3 |
| 20260504034523 | 53 | 46 | 0.0 | 3.0 | 0.00 | 0.00 | 0.00 | 27 | 1014.2 |
| 20260504033023 | 54 | 131 | 0.0 | 2.0 | 0.00 | 0.00 | 0.00 | 26 | 1014.0 |
| 20260504031509 | 55 | 28 | 2.0 | 8.0 | 0.00 | 0.00 | 0.00 | 25 | 1013.9 |
| 20260504030011 | 56 | 49 | 4.0 | 6.0 | 0.00 | 0.00 | 0.00 | 24 | 1013.7 |
| 20260504024515 | 58 | 38 | 1.0 | 7.0 | 0.00 | 0.00 | 0.00 | 22 | 1013.6 |
| 20260504023020 | 59 | 46 | 4.0 | 6.0 | 0.00 | 0.00 | 0.00 | 21 | 1013.5 |
| 20260504021525 | 61 | 25 | 2.0 | 3.0 | 0.00 | 0.00 | 0.00 | 19 | 1013.4 |
| 20260504020010 | 64 | 64 | 0.0 | 2.0 | 0.00 | 0.00 | 0.00 | 18 | 1013.4 |
| 20260504014519 | 65 | 295 | 2.0 | 6.0 | 0.00 | 0.00 | 0.00 | 17 | 1013.5 |
| 20260504013016 | 66 | 290 | 2.0 | 6.0 | 0.00 | 0.00 | 0.00 | 18 | 1013.5 |
| 20260504011522 | 67 | 290 | 3.0 | 5.0 | 0.00 | 0.00 | 0.00 | 19 | 1013.6 |
| 20260504010024 | 67 | 303 | 3.0 | 5.0 | 0.00 | 0.00 | 0.00 | 20 | 1013.7 |
| 20260504004516 | 67 | 335 | 3.0 | 8.0 | 0.00 | 0.00 | 0.00 | 20 | 1013.7 |
| 20260504003029 | 68 | 337 | 3.0 | 7.0 | 0.00 | 0.00 | 0.00 | 20 | 1013.7 |
| 20260504001526 | 68 | 301 | 3.0 | 9.0 | 0.00 | 0.00 | 0.00 | 21 | 1013.9 |
| 20260504000022 | 68 | 322 | 4.0 | 11.0 | 0.00 | 0.00 | 0.00 | 19 | 1013.9 |
| 20260503234526 | 68 | 283 | 6.0 | 12.0 | 0.00 | 0.00 | 0.00 | 19 | 1013.9 |
| 20260503233016 | 65 | 307 | 4.0 | 8.0 | 0.00 | 0.00 | 0.00 | 22 | 1013.9 |
| 20260503231523 | 66 | 321 | 4.0 | 8.0 | 0.00 | 0.00 | 0.00 | 20 | 1014.1 |
| 20260503230026 | 67 | 302 | 5.0 | 12.0 | 0.00 | 0.00 | 0.00 | 20 | 1014.5 |
| 20260503224524 | 68 | 281 | 2.0 | 10.0 | 0.00 | 0.00 | 0.00 | 16 | 1014.2 |
| 20260503223026 | 68 | 289 | 5.0 | 12.0 | 0.00 | 0.00 | 0.00 | 17 | 1014.5 |
| 20260503221521 | 68 | 244 | 3.0 | 8.0 | 0.00 | 0.00 | 0.00 | 16 | 1014.5 |
| 20260503220016 | 68 | 270 | 4.0 | 9.0 | 0.00 | 0.00 | 0.00 | 18 | 1014.7 |
| 20260503214521 | 67 | 272 | 2.0 | 11.0 | 0.00 | 0.00 | 0.00 | 15 | 1015.1 |
| 20260503213025 | 67 | 300 | 6.0 | 11.0 | 0.00 | 0.00 | 0.00 | 15 | 1015.5 |
| 20260503211528 | 67 | 139 | 0.0 | 7.0 | 0.00 | 0.00 | 0.00 | 15 | 1015.6 |
| 20260503210014 | 67 | 195 | 6.0 | 10.0 | 0.00 | 0.00 | 0.00 | 16 | 1015.8 |
| 20260503204523 | 67 | 260 | 5.0 | 11.0 | 0.00 | 0.00 | 0.00 | 19 | 1015.8 |
| 20260503203022 | 65 | 194 | 5.0 | 11.0 | 0.00 | 0.00 | 0.00 | 18 | 1016.0 |
| 20260503201528 | 64 | 299 | 3.0 | 6.0 | 0.00 | 0.00 | 0.00 | 21 | 1016.1 |
| 20260503200012 | 65 | 266 | 4.0 | 7.0 | 0.00 | 0.00 | 0.00 | 20 | 1016.2 |
| 20260503194517 | 65 | 18 | 3.0 | 7.0 | 0.00 | 0.00 | 0.00 | 21 | 1016.2 |
| 20260503193022 | 64 | 294 | 2.0 | 8.0 | 0.00 | 0.00 | 0.00 | 20 | 1016.3 |
| 20260503191529 | 64 | 285 | 4.0 | 8.0 | 0.00 | 0.00 | 0.00 | 20 | 1016.5 |
| 20260503190028 | 64 | 279 | 4.0 | 8.0 | 0.00 | 0.00 | 0.00 | 21 | 1016.8 |
| 20260503184517 | 64 | 5 | 3.0 | 7.0 | 0.00 | 0.00 | 0.00 | 22 | 1017.1 |
| 20260503183022 | 63 | 340 | 1.0 | 5.0 | 0.00 | 0.00 | 0.00 | 22 | 1017.5 |
| 20260503181523 | 63 | 58 | 2.0 | 5.0 | 0.00 | 0.00 | 0.00 | 24 | 1017.7 |
| 20260503180011 | 61 | 240 | 1.0 | 4.0 | 0.00 | 0.00 | 0.00 | 27 | 1018.0 |
| 20260503174512 | 58 | 323 | 1.0 | 3.0 | 0.00 | 0.00 | 0.00 | 35 | 1018.3 |
| 20260503173027 | 56 | 191 | 1.0 | 3.0 | 0.00 | 0.00 | 0.00 | 39 | 1018.5 |
| 20260503171523 | 54 | 271 | 0.0 | 3.0 | 0.00 | 0.00 | 0.00 | 41 | 1018.7 |
| 20260503081526 | 39 | 121 | 0.0 | 0.0 | 0.00 | 0.00 | 0.00 | 59 | 1020.1 |